Location: Clermont
(50.2608°N, 4.3172°E)
Time: 20:49:45
(UTC+00:00)

Cosmos 968 Rocket - Pass Details

Date: 13 August 2020
Orbit: 740 x 771 km, 74.0° (Epoch: 21 September)

Event Time Altitude Azimuth Distance (km) Brightness Sun altitude
Exits shadow 22:58:01 70° 208° (SSW) 791 3.3 -24.5°
Maximum altitude 22:58:37 88° 292° (WNW) 750 3.3 -24.6°
Drops below altitude 10° 23:03:47 10° 24° (NNE) 2,274 6.6 -24.7°
Sets 23:06:09 0° 25° (NNE) 3,206 7.5 -24.8°
